Location: *
(55.5817°S, 142.4781°W)
Time: 06:36:27
(UTC+00:00)

ARIANE 5 R/B - Pass Details

Date: 29 April 2025
Orbit: 747 x 792 km, 98.8° (Epoch: 23 May)

Event Time Altitude Azimuth Distance (km) Brightness Sun altitude
Rises 13:18:32 0° 44° (NE) 3,222 6.0 -30.0°
Reaches altitude 10° 13:20:56 10° 51° (NE) 2,299 5.3 -29.7°
Maximum altitude 13:25:37 40° 119° (ESE) 1,125 3.7 -29.0°
Drops below altitude 10° 13:30:19 10° 186° (S) 2,310 5.1 -28.4°
Sets 13:32:45 0° 193° (SSW) 3,240 5.8 -28.1°
